User: anonymous   Login
Location: Stonelick Lake State Park
(39.2170°N, 84.0850°W)
Time: 16:47:44
(UTC-04:00)
Language:

Abrixas rocket - Orbit

View from above orbital plane
View from above orbital plane
View from above satellite
View from above satellite

Ground track
Ground track

The orbit data is extracted from the following two-line orbital elements,

1 25723U 99022C   17176.20199724 +.00005519 +00000-0 +89785-4 0  9998
2 25723 048.4163 124.6675 0009798 071.9475 288.2537 15.54181768007428
Epoch (UTC): 25 June 2017 04:50:52
Eccentricity: 0.0009798
inclination: 48.4163°
perigee height: 398 km
apogee height: 411 km
right ascension of ascending node: 124.6675°
argument of perigee: 71.9475°
revolutions per day: 15.54181768
mean anomaly at epoch: 288.2537°
orbit number at epoch: 742

The dashed part of the orbit path shows where the satellite is in the earth's shadow,  

DLR